sat.trackr.live / text

‹ back to catalog

STARLINK-31011

NORAD 58517 · 2023-191K

PAYLOAD ACTIVE UNKNOWN

§ Identity

Operator
Country
US
Launch date
2023-12-07
Launch site
AFETR
Launch vehicle
Mass (kg)
RCS (m²)

Purposes: comms

External: N2YO · Heavens-Above · Gunter

§ Orbital elements

Epoch: 2026-09-19T20:56:29.736096Z

Period
94.27 min
Inclination
43.0013°
Eccentricity
0.0001184
Mean motion
15.27579148 rev/d
Perigee alt
482.2 km
Apogee alt
483.9 km
Semi-major
6,861.2 km
B*
1.4206e-5
RAAN
86.4077°
Arg perigee
274.9043°
Mean anomaly
85.1674°
Rev number
15,517

§ Raw data

STARLINK-310111 58517U 23191K   26262.87256639  .00000129  00000+0  14206-4 0  99942 58517  43.0013  86.4077 0001184 274.9043  85.1674 15.27579148155173

JSON: /api/v1/satellites/58517 · /tle

For live sub-satellite position, see the globe view (requires WebGL).

§ Visibility from observer

Set your observer location to see the next 7 days of passes ≥ 10°. The values pass through the URL so the page stays shareable.

No JS? Fill the form by hand. The geolocation button needs JavaScript.